Location: Bazinghen
(50.8246°N, 1.6616°E)
Time: 15:04:39
(UTC+00:00)

Cosmos 2333 Rocket - Pass Details

Date: 09 April 2020
Orbit: 841 x 861 km, 70.8° (Epoch: 03 June)

Event Time Altitude Azimuth Distance (km) Brightness Sun altitude
Rises 23:34:11 0° 331° (NNW) 3,408 6.3 -31.0°
Reaches altitude 10° 23:36:47 10° 339° (NNW) 2,470 5.4 -31.0°
Maximum altitude 23:42:09 42° 50° (NE) 1,190 3.1 -31.1°
Enters shadow 23:42:32 42° 60° (ENE) 1,199 3.1 -31.1°
